CW0811 Weather Reports


time (UTC)temp
F
wind
direction
speed
knots
gust
knots
rain 1hr
in
rain 24hr
in
rain mn
in
humidity
%
barometer
mb
20260504174542 71 153 2.6 7.0 0.00 0.00 0.00 30 1008.4
20260504173041 70 201 3.5 7.8 0.00 0.00 0.00 31 1008.6
20260504171541 71 263 0.9 7.0 0.00 0.00 0.00 30 1009.0
20260504081541 43 0 0.0 0.9 0.00 0.00 0.00 69 1010.5
20260504044547 40 0 0.0 0.0 0.00 0.00 0.00 71 1010.9
20260504043040 41 0 0.0 0.0 0.00 0.00 0.00 72 1011.0
20260504041547 41 0 0.0 0.0 0.00 0.00 0.00 69 1010.9
20260504034557 41 0 0.0 0.0 0.00 0.00 0.00 67 1010.8
20260504033105 42 0 0.0 0.0 0.00 0.00 0.00 67 1010.7
20260504031541 42 0 0.0 0.0 0.00 0.00 0.00 66 1010.4
20260504030046 43 0 0.0 0.0 0.00 0.00 0.00 66 1010.6
20260504024545 43 0 0.0 0.0 0.00 0.00 0.00 60 1010.7
20260504023059 44 0 0.0 0.0 0.00 0.00 0.00 62 1010.4
20260504021542 45 0 0.0 0.0 0.00 0.00 0.00 62 1010.2
20260504020041 45 0 0.0 0.0 0.00 0.00 0.00 55 1010.3
20260504014548 46 0 0.0 0.0 0.00 0.00 0.00 54 1010.1
20260504013046 47 0 0.0 0.0 0.00 0.00 0.00 60 1009.9
20260504011543 47 0 0.0 0.0 0.00 0.00 0.00 55 1009.8
20260504010051 46 0 0.0 0.0 0.00 0.00 0.00 54 1009.8
20260504004558 47 0 0.0 0.0 0.00 0.00 0.00 56 1009.6
20260504003041 48 0 0.0 0.0 0.00 0.00 0.00 54 1009.1
20260504001540 49 0 0.0 0.0 0.00 0.00 0.00 45 1008.9
20260504000049 50 0 0.0 0.9 0.00 0.00 0.00 49 1008.8
20260503234546 52 0 0.0 0.9 0.00 0.00 0.00 40 1008.7
20260503233042 53 0 0.0 0.0 0.00 0.00 0.00 37 1008.6
20260503231541 54 0 0.0 1.7 0.00 0.00 0.00 36 1008.3
20260503230041 54 213 1.7 4.3 0.00 0.00 0.00 33 1008.3
20260503224547 54 303 1.7 8.7 0.00 0.00 0.00 34 1008.3
20260503223051 54 238 0.0 4.3 0.00 0.00 0.00 38 1008.2
20260503221545 54 0 0.0 3.5 0.00 0.00 0.00 37 1008.1
20260503220046 54 319 1.7 5.2 0.00 0.00 0.00 35 1008.2
20260503214540 54 360 1.7 6.1 0.00 0.00 0.00 35 1008.4
20260503213057 54 297 1.7 7.0 0.00 0.00 0.00 36 1008.2
20260503211548 55 329 2.6 7.0 0.00 0.00 0.00 34 1008.2
20260503210054 56 165 1.7 9.6 0.00 0.00 0.00 34 1008.1
20260503204550 56 153 1.7 7.8 0.00 0.00 0.00 33 1008.2
20260503203040 55 166 2.6 7.8 0.00 0.00 0.00 34 1008.2
20260503201546 55 34 2.6 12.2 0.00 0.00 0.00 33 1008.2
20260503200054 55 233 1.7 7.8 0.00 0.00 0.00 35 1008.0
20260503194546 55 9 2.6 9.6 0.00 0.00 0.00 33 1008.1
20260503193051 56 230 2.6 8.7 0.00 0.00 0.00 35 1008.0
20260503191542 57 259 1.7 8.7 0.00 0.00 0.00 35 1007.9
20260503190040 55 269 2.6 10.4 0.00 0.00 0.00 33 1007.9
20260503184556 53 319 1.7 8.7 0.00 0.01 0.00 35 1008.1
20260503183059 55 247 2.6 7.8 0.00 0.01 0.00 35 1008.1
20260503181542 54 336 1.7 8.7 0.00 0.01 0.00 36 1008.0
20260503180045 55 155 1.7 7.0 0.00 0.01 0.00 38 1007.8